Regional Weather Roundup
Issued by NWS

Home | Current Version | Previous Version | Graphics & Text | Print | Product List | Glossary On
Versions: 1 2 3 4 5 6 7 8 9 10 11 12 13 14 15 16 17 18 19 20 21 22 23 24 25 26 27 28 29 30 31 32 33 34 35 36 37 38 39 40 41 42 43 44 45 46 47 48 49 50
000
ASUS43 KFSD 240802
RWRSD

WEATHER ROUNDUP FOR SOUTH DAKOTA
NATIONAL WEATHER SERVICE SIOUX FALLS SD
300 AM CDT SUN SEP 24 2017

NOTE: "FAIR" INDICATES FEW OR NO CLOUDS BELOW 12,000 FEET WITH NO
SIGNIFICANT WEATHER AND/OR OBSTRUCTIONS TO VISIBILITY.


SDZ001>005-009-010-012>017-240900-
NORTHWEST AND NORTH CENTRAL SOUTH DAKOTA

CITY           SKY/WX    TMP DP  RH WIND       PRES   REMARKS
BUFFALO          N/A     45  43  93 N9        29.97R
FAITH            N/A     46  46 100 N12       29.96F
MOBRIDGE       LGT RAIN  52  50  93 N14       29.91F
$$

SDZ012>016-024>037-041>051-057-063-072>074-240900-
SOUTHWEST AND SOUTH CENTRAL SOUTH DAKOTA

CITY           SKY/WX    TMP DP  RH WIND       PRES   REMARKS
RAPID CTY ARPT NOT AVBL
PIERRE         LGT RAIN  52  51  97 N6        29.90S
CUSTER         CLOUDY    41  39  93 W6        29.98R
ELLSWORTH AFB  CLOUDY    45  45 100 N13       29.99
PHILIP         CLOUDY    49  49 100 N9        29.95R
PINE RIDGE     LGT RAIN  47  46  97 N8        29.96F
SPEARFISH      LGT RAIN  43  43 100 NW6       30.02F
WINNER         LGT RAIN  52  51  97 NW5       29.90F
$$

SDZ004>011-016>023-039-040-240900-
NORTHEAST SOUTH DAKOTA

CITY           SKY/WX    TMP DP  RH WIND       PRES   REMARKS
ABERDEEN       HVY RAIN  54  54 100 N10       29.89F FOG
WATERTOWN      CLOUDY    63  62  97 E9G18     29.85F
BROOKINGS      PTCLDY    59  58  96 E12       29.88F
SISSETON         N/A     57  57 100 SE5       29.86F
$$

SDZ017-020-022-023-036>040-048>070-240900-
SOUTHEAST SOUTH DAKOTA

CITY           SKY/WX    TMP DP  RH WIND       PRES   REMARKS
SIOUX FALLS    CLOUDY    59  59 100 E6        29.88F FOG
HURON          CLOUDY    55  55 100 NW9       29.89F
CHAMBERLAIN    RAIN      54  54 100 N5        29.88F
MITCHELL       CLOUDY    57  56  96 NW8       29.89F
YANKTON        MOCLDY    58  57  97 E5        29.87S
$$

ABBREVIATIONS USED IN REMARKS
   TC - TEMPERATURE IN CELSIUS
  WCI - WIND CHILL INDEX
   HX - HEAT INDEX
  VSB - VISIBILITY





USA.gov is the U.S. government's official web portal to all federal, state and local government web resources and services.